| time (UTC) | temp F | wind direction | speed knots | gust knots | rain 1hr in | rain 24hr in | rain mn in | humidity % | barometer mb |
| 20260507063001 | 46 | 60 | 4.3 | 0.0 | 0.00 | 0.00 | 0.00 | 83 | 1011.6 |
| 20260507060001 | 46 | 60 | 1.7 | 0.0 | 0.00 | 0.00 | 0.00 | 84 | 1011.6 |
| 20260507053001 | 45 | 50 | 0.9 | 0.0 | 0.00 | 0.00 | 0.00 | 85 | 1010.6 |
| 20260507050001 | 45 | 65 | 3.5 | 0.0 | 0.00 | 0.00 | 0.00 | 84 | 1010.6 |
| 20260507043001 | 45 | 135 | 5.2 | 0.0 | 0.00 | 0.00 | 0.00 | 84 | 1010.6 |
| 20260507040000 | 45 | 130 | 2.6 | 0.0 | 0.00 | 0.00 | 0.00 | 84 | 1009.6 |
| 20260507033001 | 45 | 55 | 1.7 | 0.0 | 0.00 | 0.00 | 0.00 | 85 | 1009.6 |
| 20260507030002 | 45 | 85 | 3.5 | 0.0 | 0.00 | 0.00 | 0.00 | 85 | 1009.6 |
| 20260507023001 | 45 | 85 | 1.7 | 0.0 | 0.00 | 0.00 | 0.00 | 85 | 1009.6 |
| 20260507020001 | 45 | 65 | 3.5 | 0.0 | 0.00 | 0.00 | 0.00 | 85 | 1009.6 |
| 20260507013001 | 45 | 80 | 2.6 | 0.0 | 0.00 | 0.00 | 0.00 | 85 | 1009.6 |
| 20260507010000 | 45 | 60 | 0.9 | 0.0 | 0.00 | 0.00 | 0.00 | 85 | 1008.6 |
| 20260507003001 | 45 | 65 | 3.5 | 0.0 | 0.00 | 0.00 | 0.00 | 85 | 1008.6 |
| 20260507000000 | 45 | 45 | 5.2 | 0.0 | 0.00 | 0.00 | 0.00 | 85 | 1008.6 |
| 20260506233003 | 45 | 70 | 2.6 | 0.0 | 0.00 | 0.00 | 0.00 | 85 | 1008.6 |
| 20260506230001 | 46 | 75 | 3.5 | 0.0 | 0.00 | 0.00 | 0.00 | 86 | 1008.6 |
| 20260506223000 | 48 | 95 | 5.2 | 0.0 | 0.00 | 0.00 | 0.00 | 85 | 1008.6 |
| 20260506220001 | 49 | 35 | 5.2 | 0.0 | 0.00 | 0.00 | 0.91 | 84 | 1007.6 |
| 20260506213001 | 50 | 35 | 5.2 | 0.0 | 0.00 | 0.00 | 0.91 | 84 | 1007.6 |
| 20260506210000 | 51 | 75 | 0.9 | 0.0 | 0.00 | 0.00 | 0.91 | 84 | 1007.6 |
| 20260506203001 | 51 | 105 | 0.9 | 0.0 | 0.00 | 0.00 | 0.91 | 85 | 1007.6 |
| 20260506200001 | 51 | 110 | 3.5 | 0.0 | 0.00 | 0.00 | 0.91 | 86 | 1007.6 |
| 20260506193001 | 51 | 65 | 0.0 | 0.0 | 0.00 | 0.00 | 0.91 | 86 | 1007.6 |
| 20260506190000 | 51 | 85 | 2.6 | 0.0 | 0.00 | 0.00 | 0.91 | 86 | 1006.6 |
| 20260506183003 | 52 | 60 | 0.9 | 0.0 | 0.00 | 0.00 | 0.91 | 86 | 1006.6 |
| 20260506180001 | 52 | 45 | 4.3 | 0.0 | 0.00 | 0.00 | 0.91 | 86 | 1006.6 |
| 20260506173000 | 52 | 95 | 3.5 | 0.0 | 0.00 | 0.00 | 0.91 | 86 | 1006.6 |
| 20260506170002 | 53 | 70 | 5.2 | 0.0 | 0.00 | 0.00 | 0.91 | 85 | 1006.6 |
| 20260506163001 | 54 | 100 | 1.7 | 0.0 | 0.00 | 0.00 | 0.91 | 84 | 1006.6 |
| 20260506160002 | 54 | 55 | 1.7 | 0.0 | 0.00 | 0.00 | 0.91 | 85 | 1006.6 |
| 20260506153000 | 55 | 20 | 2.6 | 0.0 | 0.00 | 0.00 | 0.91 | 84 | 1006.6 |
| 20260506150002 | 54 | 60 | 0.9 | 0.0 | 0.00 | 0.00 | 0.91 | 86 | 1006.6 |
| 20260506143001 | 53 | 335 | 2.6 | 0.0 | 0.00 | 0.00 | 0.91 | 87 | 1006.6 |
| 20260506140001 | 53 | 310 | 1.7 | 0.0 | 0.00 | 0.00 | 0.91 | 87 | 1006.6 |
| 20260506133001 | 53 | 85 | 1.7 | 0.0 | 0.00 | 0.00 | 0.91 | 87 | 1006.6 |
| 20260506130002 | 53 | 90 | 5.2 | 0.0 | 0.00 | 0.00 | 0.91 | 87 | 1005.6 |
| 20260506123001 | 53 | 325 | 2.6 | 0.0 | 0.00 | 0.00 | 0.89 | 87 | 1006.6 |
| 20260506120001 | 53 | 85 | 1.7 | 0.0 | 0.00 | 0.00 | 0.89 | 87 | 1005.6 |
| 20260506113001 | 54 | 220 | 0.0 | 0.0 | 0.00 | 0.00 | 0.89 | 87 | 1005.6 |
| 20260506110001 | 53 | 280 | 2.6 | 0.0 | 0.00 | 0.00 | 0.89 | 88 | 1005.6 |
| 20260506103000 | 53 | 75 | 2.6 | 0.0 | 0.00 | 0.00 | 0.88 | 88 | 1004.6 |
| 20260506100002 | 53 | 35 | 2.6 | 0.0 | 0.00 | 0.00 | 0.87 | 88 | 1004.6 |
| 20260506093000 | 53 | 280 | 0.0 | 0.0 | 0.00 | 0.00 | 0.84 | 88 | 1004.6 |
| 20260506090001 | 53 | 70 | 1.7 | 0.0 | 0.00 | 0.00 | 0.80 | 88 | 1004.6 |
| 20260506083000 | 52 | 70 | 3.5 | 0.0 | 0.00 | 0.00 | 0.79 | 88 | 1003.6 |
| 20260506073003 | 52 | 40 | 3.5 | 0.0 | 0.00 | 0.00 | 0.70 | 88 | 1003.6 |